BY70-2 (45857 NORAD) Tracking and Keplerian Element Data

This shows tracking and keplerian element data for the satellite.

Feedback or suggestion? Click here.




ElementValue
Catalog45857
NameBY70-2
Epoch Orbit591
Epoch Day225.16882235
Epoch Year2020
RAAN297.8656
Inclination98.0118
Eccentricity0.0012737
Argument of Perigee125.4374
Mean Anonmoly234.8044
Mean Motion14.76248863
Decay Rate8.18E-06
L11 45857U 20042B 20225.16882235 .00000818 00000-0 12549-3 0 9994
L22 45857 98.0118 297.8656 0012737 125.4374 234.8044 14.76248863 5916

Live tracking and technical data element details for BY70-2 (NORAD 45857). BY70-2 can be tracked NOW for your location showing map with azimuth and elevation plus other details from your city location.

Track the satellite on the map from your city or location and see movement details for azimuth, elevation, latitude, longitude, range, height, and movement on the map or in text.







IsCatalogInMostPopularTable: catalog: 45857, numindb: 5
Update: records affected: 1



GetName: 45857 BY70-2

Hit Count: updated at: Fri, 14 Aug 2020 06:05:16 GMT